When you browse on this site, cookies collect data to enhance your experience and personalize the content and advertising you see.
Visit our Privacy Policy to learn more. By continuing to use the site, you agree to this use of cookies and data.
  • In Romania
  • List of Countries
  • For 7 days
  • Water Temperature
  • Weather Map
  • Weather Widgets
  • user-avatar
    Login

    Hourly Weather Abu Dhabi

    Today, 28 May, Thursday

    Time Temperature Precipitation Wind Pressure Humidity
    00:00 +35°C° 0 mm 1 mps 753 mmHg 36%
    01:00 +35°C° 0 mm 1 mps 753 mmHg 33%
    02:00 +34°C° 0 mm 1 mps 753 mmHg 39%
    03:00 +34°C° 0 mm 2 mps 753 mmHg 44%
    04:00 +32°C° 0 mm 2 mps 753 mmHg 52%
    05:00 +34°C° 0 mm 3 mps 753 mmHg 50%
    06:00 +34°C° 0 mm 3 mps 754 mmHg 48%
    07:00 +35°C° 0 mm 3 mps 754 mmHg 46%
    08:00 +37°C° 0 mm 3 mps 754 mmHg 38%
    09:00 +40°C° 0 mm 3 mps 754 mmHg 30%
    10:00 +42°C° 0 mm 2 mps 754 mmHg 23%
    11:00 +43°C° 0 mm 2 mps 754 mmHg 21%
    12:00 +45°C° 0 mm 3 mps 753 mmHg 19%
    13:00 +46°C° 0 mm 3 mps 753 mmHg 17%
    14:00 +45°C° 0 mm 4 mps 752 mmHg 18%
    15:00 +46°C° 0 mm 5 mps 752 mmHg 20%
    16:00 +45°C° 0 mm 7 mps 752 mmHg 22%
    17:00 +43°C° 0 mm 7 mps 752 mmHg 29%
    18:00 +40°C° 0 mm 7 mps 752 mmHg 35%
    19:00 +38°C° 0 mm 7 mps 752 mmHg 42%
    20:00 +38°C° 0 mm 6 mps 752 mmHg 42%
    21:00 +38°C° 0 mm 6 mps 752 mmHg 42%
    22:00 +36°C° 0 mm 5 mps 752 mmHg 42%
    23:00 +36°C° 0 mm 4 mps 752 mmHg 40%

    Tomorrow, 29 May, Friday

    Time Temperature Precipitation Wind Pressure Humidity
    00:00 +36°C° 0 mm 3 mps 752 mmHg 38%
    01:00 +36°C° 0 mm 2 mps 752 mmHg 36%
    02:00 +35°C° 0 mm 2 mps 751 mmHg 37%
    03:00 +35°C° 0 mm 3 mps 751 mmHg 38%
    04:00 +34°C° 0 mm 3 mps 751 mmHg 39%
    05:00 +35°C° 0 mm 4 mps 752 mmHg 35%
    06:00 +36°C° 0 mm 4 mps 752 mmHg 31%
    07:00 +37°C° 0 mm 5 mps 753 mmHg 28%
    08:00 +40°C° 0 mm 4 mps 753 mmHg 26%
    09:00 +42°C° 0 mm 4 mps 753 mmHg 24%
    10:00 +44°C° 0 mm 3 mps 753 mmHg 22%
    11:00 +45°C° 0 mm 3 mps 752 mmHg 20%
    12:00 +46°C° 0 mm 2 mps 752 mmHg 18%
    13:00 +46°C° 0 mm 1 mps 752 mmHg 16%
    14:00 +46°C° 0 mm 3 mps 752 mmHg 18%
    15:00 +47°C° 0 mm 5 mps 751 mmHg 19%
    16:00 +46°C° 0 mm 7 mps 751 mmHg 20%
    17:00 +44°C° 0 mm 7 mps 751 mmHg 23%
    18:00 +43°C° 0 mm 7 mps 751 mmHg 27%
    19:00 +40°C° 0 mm 6 mps 751 mmHg 30%
    20:00 +40°C° 0 mm 5 mps 751 mmHg 30%
    21:00 +39°C° 0 mm 3 mps 751 mmHg 30%
    22:00 +38°C° 0 mm 2 mps 751 mmHg 30%
    23:00 +38°C° 0 mm 2 mps 751 mmHg 30%

    Day after tomorrow, 30 May, Saturday

    Time Temperature Precipitation Wind Pressure Humidity
    00:00 +36°C° 0 mm 1 mps 751 mmHg 30%
    01:00 +36°C° 0 mm 1 mps 751 mmHg 29%
    02:00 +36°C° 0 mm 2 mps 751 mmHg 33%
    03:00 +36°C° 0 mm 2 mps 751 mmHg 36%
    04:00 +35°C° 0 mm 3 mps 751 mmHg 39%
    05:00 +36°C° 0 mm 4 mps 751 mmHg 35%
    06:00 +37°C° 0 mm 4 mps 752 mmHg 32%
    07:00 +37°C° 0 mm 5 mps 752 mmHg 28%
    08:00 +40°C° 0 mm 5 mps 752 mmHg 29%
    09:00 +41°C° 0 mm 6 mps 753 mmHg 31%
    10:00 +44°C° 0 mm 6 mps 753 mmHg 33%
    11:00 +45°C° 0 mm 6 mps 753 mmHg 28%
    12:00 +47°C° 0 mm 6 mps 753 mmHg 24%
    13:00 +48°C° 0 mm 5 mps 752 mmHg 20%
    14:00 +47°C° 0 mm 6 mps 752 mmHg 21%
    15:00 +46°C° 0 mm 6 mps 752 mmHg 23%
    16:00 +45°C° 0 mm 7 mps 751 mmHg 24%
    17:00 +42°C° 0 mm 6 mps 751 mmHg 28%
    18:00 +41°C° 0 mm 6 mps 751 mmHg 31%
    19:00 +39°C° 0 mm 5 mps 751 mmHg 34%
    20:00 +39°C° 0 mm 5 mps 752 mmHg 34%
    21:00 +37°C° 0 mm 4 mps 752 mmHg 35%
    22:00 +36°C° 0 mm 3 mps 753 mmHg 35%
    23:00 +36°C° 0 mm 3 mps 752 mmHg 34%

    31 May, Sunday

    Time Temperature Precipitation Wind Pressure Humidity
    00:00 +35°C° 0 mm 2 mps 752 mmHg 32%
    01:00 +34°C° 0 mm 1 mps 752 mmHg 31%
    02:00 +33°C° 0 mm 1 mps 752 mmHg 31%
    03:00 +33°C° 0 mm 1 mps 752 mmHg 32%
    04:00 +32°C° 0 mm 1 mps 752 mmHg 32%
    05:00 +34°C° 0 mm 2 mps 753 mmHg 30%
    06:00 +36°C° 0 mm 3 mps 753 mmHg 28%
    07:00 +37°C° 0 mm 3 mps 754 mmHg 26%
    08:00 +40°C° 0 mm 4 mps 754 mmHg 25%
    09:00 +42°C° 0 mm 5 mps 754 mmHg 25%
    10:00 +45°C° 0 mm 6 mps 754 mmHg 25%
    11:00 +46°C° 0 mm 6 mps 754 mmHg 23%
    12:00 +46°C° 0 mm 5 mps 753 mmHg 21%
    13:00 +47°C° 0 mm 5 mps 753 mmHg 19%
    14:00 +46°C° 0 mm 5 mps 752 mmHg 22%
    15:00 +45°C° 0 mm 5 mps 752 mmHg 24%
    16:00 +44°C° 0 mm 6 mps 751 mmHg 27%
    17:00 +41°C° 0 mm 5 mps 751 mmHg 31%
    18:00 +40°C° 0 mm 4 mps 752 mmHg 34%
    19:00 +37°C° 0 mm 3 mps 752 mmHg 38%
    20:00 +37°C° 0 mm 3 mps 752 mmHg 41%
    21:00 +36°C° 0 mm 2 mps 752 mmHg 44%
    22:00 +35°C° 0 mm 2 mps 753 mmHg 47%
    23:00 +35°C° 0 mm 3 mps 752 mmHg 48%

    1 June, Monday

    Time Temperature Precipitation Wind Pressure Humidity
    00:00 +34°C° 0 mm 3 mps 752 mmHg 49%
    01:00 +34°C° 0 mm 4 mps 752 mmHg 50%
    02:00 +33°C° 0 mm 4 mps 752 mmHg 54%
    03:00 +33°C° 0 mm 4 mps 752 mmHg 59%
    04:00 +32°C° 0 mm 4 mps 752 mmHg 63%
    05:00 +33°C° 0 mm 4 mps 752 mmHg 62%
    06:00 +33°C° 0 mm 5 mps 752 mmHg 61%
    07:00 +33°C° 0 mm 5 mps 753 mmHg 60%
    08:00 +35°C° 0 mm 5 mps 753 mmHg 49%
    09:00 +39°C° 0 mm 5 mps 753 mmHg 38%
    10:00 +41°C° 0 mm 5 mps 754 mmHg 27%
    11:00 +42°C° 0 mm 5 mps 753 mmHg 26%
    12:00 +42°C° 0 mm 5 mps 753 mmHg 24%
    13:00 +44°C° 0 mm 6 mps 753 mmHg 23%
    14:00 +43°C° 0 mm 5 mps 752 mmHg 24%
    15:00 +42°C° 0 mm 5 mps 752 mmHg 25%
    16:00 +42°C° 0 mm 5 mps 751 mmHg 26%
    17:00 +40°C° 0 mm 4 mps 751 mmHg 32%
    18:00 +38°C° 0 mm 4 mps 751 mmHg 39%
    19:00 +36°C° 0 mm 3 mps 751 mmHg 46%
    20:00 +35°C° 0 mm 3 mps 751 mmHg 49%
    21:00 +35°C° 0 mm 3 mps 752 mmHg 52%
    22:00 +34°C° 0 mm 3 mps 752 mmHg 56%
    23:00 +34°C° 0 mm 3 mps 752 mmHg 56%

    2 June, Tuesday

    Time Temperature Precipitation Wind Pressure Humidity
    00:00 +34°C° 0 mm 4 mps 752 mmHg 56%
    01:00 +33°C° 0 mm 4 mps 751 mmHg 56%
    02:00 +33°C° 0 mm 4 mps 751 mmHg 58%
    03:00 +31°C° 0 mm 3 mps 751 mmHg 60%
    04:00 +31°C° 0 mm 3 mps 751 mmHg 62%
    05:00 +33°C° 0 mm 3 mps 751 mmHg 59%
    06:00 +33°C° 0 mm 3 mps 752 mmHg 56%
    07:00 +34°C° 0 mm 3 mps 752 mmHg 53%
    08:00 +36°C° 0 mm 4 mps 752 mmHg 45%
    09:00 +38°C° 0 mm 4 mps 752 mmHg 38%
    10:00 +41°C° 0 mm 4 mps 753 mmHg 30%
    11:00 +42°C° 0 mm 4 mps 753 mmHg 28%
    12:00 +42°C° 0 mm 5 mps 752 mmHg 26%
    13:00 +43°C° 0 mm 5 mps 752 mmHg 24%
    14:00 +43°C° 0 mm 5 mps 752 mmHg 24%
    15:00 +43°C° 0 mm 5 mps 751 mmHg 24%
    16:00 +42°C° 0 mm 5 mps 751 mmHg 25%
    17:00 +40°C° 0 mm 3 mps 751 mmHg 28%
    18:00 +39°C° 0 mm 2 mps 751 mmHg 31%
    19:00 +36°C° 0 mm 1 mps 751 mmHg 34%
    20:00 +36°C° 0 mm 1 mps 751 mmHg 36%
    21:00 +35°C° 0 mm 1 mps 751 mmHg 38%
    22:00 +34°C° 0 mm 1 mps 752 mmHg 40%
    23:00 +34°C° 0 mm 1 mps 751 mmHg 40%
    Show more